Location: Mexico
(19.4000°N, 99.1500°W)
Time: 14:56:57
(UTC-06:00)

ISS - Pass Details

Date: 21 October 2020
Orbit: 417 x 420 km, 51.6° (Epoch: 21 October)

Event Time Altitude Azimuth Distance (km) Brightness Sun altitude
Exits shadow 04:57:49 48° 112° (ESE) 549 -2.9 -23.1°
Drops below altitude 10° 05:00:50 10° 51° (NE) 1,486 -0.4 -22.4°
Sets 05:02:57 0° 46° (NE) 2,349 0.6 -21.9°
